Regional Weather Roundup
Issued by NWS

Home | Current Version | Previous Version | Graphics & Text | Print | Product List | Glossary On
Versions: 1 2 3 4 5 6 7 8 9 10 11 12 13 14 15 16 17 18 19 20 21 22 23 24 25 26 27 28 29 30 31 32 33 34 35 36 37 38 39 40 41 42 43 44 45 46 47 48 49 50
575
ASUS43 KDMX 200006
RWRIA

WEATHER ROUNDUP FOR IOWA
NATIONAL WEATHER SERVICE DES MOINES IA
700 PM CDT SAT AUG 19 2017

NOTE: "FAIR" INDICATES FEW OR NO CLOUDS BELOW 12,000 FEET WITH NO
SIGNIFICANT WEATHER AND/OR OBSTRUCTIONS TO VISIBILITY.

* - THESE STATIONS ARE NOT NWS STATIONS...THUS NOT UNDER NWS
QUALITY CONTROL.  THEY ALSO DO NOT REPORT WEATHER SUCH
AS PRECIPITATION OR FOG.

IAZ001>003-012>014-020>022-031>034-043>046-200100-
   NORTHWEST IOWA

CITY           SKY/WX    TMP DP  RH WIND       PRES   REMARKS
CARROLL *      SUNNY     77  70  78 SE5       29.90S
CHEROKEE *     CLOUDY    77  65  66 SE6       29.87F
DENISON *      SUNNY     77  66  69 SE3       29.91S
LE MARS *      MOSUNNY   79  66  65 SE8       29.84F HX  81
ORANGE CITY *  CLOUDY    79  66  65 SE6       29.86F HX  81
SHELDON *      MOSUNNY   77  66  69 SE7       29.86S
SIOUX CITY     SUNNY     80  67  64 S10       29.84F HX  82
6HR MIN TEMP:  78; 6HR MAX TEMP:  83;

SPENCER        PTSUNNY   79  66  64 S8        29.88F HX  81
6HR MIN TEMP:  76; 6HR MAX TEMP:  81;

STORM LAKE *   SUNNY     73  66  78 SE7       29.89F
$$

IAZ055>058-069>071-079>083-090>094-200100-
   SOUTHWEST IOWA

CITY           SKY/WX    TMP DP  RH WIND       PRES   REMARKS
ATLANTIC *     SUNNY     82  68  61 S5        29.89F HX  85
AUDUBON *      SUNNY     81  70  69 SE5       29.91F HX  84
CLARINDA *     SUNNY     82  68  61 CALM      29.91F HX  85
COUNCIL BLFS * SUNNY     81  66  61 SE8       29.88F HX  83
CRESTON *      SUNNY     84  57  39 CALM      29.92F HX  83
HARLAN  *      SUNNY     81  68  65 S6        29.92F HX  83
LAMONI         SUNNY     89  53  29 CALM      29.91F HX  87
6HR MIN TEMP:  84; 6HR MAX TEMP:  91;

RED OAK *      SUNNY     82  66  57 SE5       29.89F HX  85
SHENANDOAH *   SUNNY     82  64  54 SE6       29.89S HX  84
$$

IAZ047>049-059>061-072>074-084-200100-
   CENTRAL IOWA

CITY           SKY/WX    TMP DP  RH WIND       PRES   REMARKS
AMES           SUNNY     80  68  66 E5        29.90F HX  83
6HR MIN TEMP:  76; 6HR MAX TEMP:  83;

ANKENY *       SUNNY     81  66  61 CALM      29.91F HX  83
BOONE *        SUNNY     79  66  65 VRB3      29.91S HX  81
CHARITON *     SUNNY     84  61  45 CALM      29.91S HX  84
DES MOINES     SUNNY     83  62  49 S5        29.90S HX  84
6HR MIN TEMP:  78; 6HR MAX TEMP:  87;

GRINNELL*      SUNNY     78  68  72 E3        29.93S
KNOXVILLE *    SUNNY     84  59  42 CALM      29.89S HX  84
MARSHALLTOWN   SUNNY     78  67  68 SE6       29.91S HX  80
6HR MIN TEMP:  77; 6HR MAX TEMP:  81;

NEWTON *       SUNNY     79  66  65 E5        29.91F HX  81
PELLA *        SUNNY     83  64  52 CALM      29.91S HX  85
PERRY *          N/A     80  68  65 E3        29.90F HX  83
$$

IAZ004>006-015-016-023>025-035-036-200100-
   NORTH CENTRAL IOWA

CITY           SKY/WX    TMP DP  RH WIND       PRES   REMARKS
ALGONA *       SUNNY     77  66  69 SE6       29.90F
CLARION *      SUNNY     77  70  78 S6        29.91F
ESTHERVILLE    SUNNY     75  67  76 S7        29.89F
6HR MIN TEMP:  73; 6HR MAX TEMP:  78;

FORT DODGE *   SUNNY     79  63  57 S6        29.91F HX  80
MASON CITY     SUNNY     76  64  66 S6        29.93F
6HR MIN TEMP:  76; 6HR MAX TEMP:  80;

FOREST CITY *    N/A     75  64  69 S5        29.92F
WEBSTER CITY * SUNNY     79  66  65 SE5       29.89F HX  81
IOWA FALLS *     N/A     78  67  68 SE3       29.93F HX  80
$$

IAZ007>011-017>019-026>030-037>042-050>054-066-200100-
   NORTHEAST IOWA

CITY           SKY/WX    TMP DP  RH WIND       PRES   REMARKS
CEDAR RAPIDS   SUNNY     78  64  61 SE5       29.92F HX  80
6HR MIN TEMP:  77; 6HR MAX TEMP:  82;

CHARLES CITY * SUNNY     75  66  73 S5        29.93S
CLINTON *      CLEAR     77  63  61 SE7       29.95F
DECORAH *      SUNNY     75  63  64 VRB3      29.92F
DUBUQUE        CLEAR     75  62  64 S5        29.95F
6HR MIN TEMP:  75; 6HR MAX TEMP:  79;

MONTICELLO *   CLEAR     77  64  65 CALM      29.93F
OELWEIN *      SUNNY     75  66  73 SE6       29.94S
WATERLOO       SUNNY     78  61  55 S9        29.91S HX  80
6HR MIN TEMP:  77; 6HR MAX TEMP:  82;

$$

IAZ064-065-067-068-078-200100-
   EAST CENTRAL IOWA

CITY           SKY/WX    TMP DP  RH WIND       PRES   REMARKS
DAVENPORT      CLEAR     78  62  57 SE6       29.96S HX  80
6HR MIN TEMP:  78; 6HR MAX TEMP:  83;

IOWA CITY      SUNNY     81  64  56 E6        29.93F HX  82
6HR MIN TEMP:  80; 6HR MAX TEMP:  84;

MT. PLEASANT * CLEAR     80  66  62 E7        29.92S HX  82
MUSCATINE *    CLEAR     81  63  54 SE7       29.93S HX  82
QUAD CITIES    CLEAR     79  63  57 SE5       29.93F HX  80
6HR MIN TEMP:  79; 6HR MAX TEMP:  83;

$$

IAZ062-063-075>077-085>089-095>099-200100-
   SOUTHEAST IOWA

CITY           SKY/WX    TMP DP  RH WIND       PRES   REMARKS
BURLINGTON     CLEAR     80  68  66 E7        29.92S HX  83
6HR MIN TEMP:  80; 6HR MAX TEMP:  83;

FAIRFIELD *    SUNNY     82  64  54 E12       29.90F HX  84
FORT MADISON * CLEAR     79  72  78 E3        29.93S HX  82
KEOKUK *       CLEAR     82  68  61 E7        29.91S HX  85
OSKALOOSA *      N/A     81  66  60 E7        29.91S HX  83
CENTERVILLE *    N/A     82  64  54 CALM      29.93S HX  84
OTTUMWA        SUNNY     83  65  54 E13       29.90S HX  85
6HR MIN TEMP:  82; 6HR MAX TEMP:  89;

WASHINGTON *   SUNNY     79  68  69 E6        29.93S HX  81
$$

ABBREVIATIONS USED IN REMARKS
   TC - TEMPERATURES IN CELSIUS
  WCI - WIND CHILL INDEX
   HX - HEAT INDEX
  VSB - VISIBILITY
$$





USA.gov is the U.S. government's official web portal to all federal, state and local government web resources and services.